Pittsburgh, PA

8:11 AM EDT on July 28, 2017 (GMT -0400)
Pittsburgh International

Weather History for KPIT - March, 2012

Change the Weather History Date:

Monday, March 5, 2012

  Actual Average Record
Temperature  
Mean Temperature 28 °F 36 °F  
Max Temperature 32 °F 45 °F 78 °F (2004)
Min Temperature 23 °F 27 °F 4 °F (2015)
Degree Days  
Heating Degree Days 37 29  
Month to date heating degree days 132 150  
Since 1 July heating degree days 3810 4407  
Cooling Degree Days 0 0  
Month to date cooling degree days 0 0  
Year to date cooling degree days 0 0  
Moisture  
Dew Point 21 °F    
Average Humidity 75    
Maximum Humidity 92    
Minimum Humidity 58    
Precipitation  
Precipitation 0.09 in 0.09 in 1.50 in (1902)
Month to date precipitation 0.36 0.43  
Year to date precipitation 6.45 5.52  
Snow  
Snow 2.60 in 0.30 in 15.00 in (1902)
Month to date snowfall 6.0 1.6  
Since 1 July snowfall 36.9 34.4  
Snow Depth 0.00 in    
Sea Level Pressure  
Sea Level Pressure 30.14 in    
Wind  
Wind Speed 9 mph (WNW)    
Max Wind Speed 22 mph    
Max Gust Speed 26 mph    
Visibility 7 miles    
Events Snow    
T = Trace of Precipitation, MM = Missing Value Source: NWS Daily Summary

Daily Weather History Graph

Daily Weather History Graph

Search for Another Location

Airport or City:

Trip Planner

Search our weather history database for the weather conditions in past years. The results will help you decide how hot, cold, wet, or windy it might be!

Date:

Astronomy

Mar. 05, 2012 Rise Set
Actual Time 6:47 AM EST 6:17 PM EST
Civil Twilight 6:20 AM EST 6:44 PM EST
Nautical Twilight 5:48 AM EST 7:16 PM EST
Astronomical Twilight 5:17 AM EST 7:48 PM EST
Moon 3:33 PM EST (3/5) 4:46 AM EST (3/5)
Length of Visible Light 12h 24m
Length of Day
11h 29m
Waxing Gibbous, 91% of the Moon is Illuminated
Mar 5
Waxing Gibbous
Mar 8
Full
Mar 14
Last Quarter
Mar 22
New
Mar 30
First Quarter

Hourly Weather History & Observations

Time (EST) Temp. Windchill Dew Point Humidity Pressure Visibility Wind Dir Wind Speed Gust Speed Precip Events Conditions
12:51 AM 27.0 °F - 25.0 °F 92% 29.91 in 10.0 mi Calm Calm - 0.00 in   Overcast
1:51 AM 28.0 °F 21.7 °F 25.0 °F 88% 29.91 in 9.0 mi SW 5.8 mph - 0.00 in Snow Light Snow
2:51 AM 28.0 °F 20.8 °F 24.1 °F 85% 29.91 in 9.0 mi WSW 6.9 mph - 0.00 in Snow Light Snow
3:16 AM 28.4 °F 22.2 °F 24.8 °F 86% 29.84 in 8.0 mi WSW 5.8 mph - 0.00 in Snow Light Snow
3:40 AM 28.4 °F 24.6 °F 24.8 °F 86% 29.84 in 9.0 mi SW 3.5 mph - 0.00 in Snow Light Snow
3:51 AM 28.0 °F - 24.1 °F 85% 29.91 in 8.0 mi Calm Calm - 0.00 in Snow Light Snow
4:17 AM 28.4 °F 23.3 °F 24.8 °F 86% 29.86 in 10.0 mi SW 4.6 mph - 0.00 in   Overcast
4:51 AM 28.0 °F 24.2 °F 24.1 °F 85% 29.92 in 10.0 mi WSW 3.5 mph - 0.00 in   Overcast
5:51 AM 27.0 °F - 24.1 °F 89% 29.96 in 5.0 mi Calm Calm - 0.00 in Snow Light Snow
6:07 AM 26.6 °F 22.6 °F 24.8 °F 93% 29.90 in 2.5 mi West 3.5 mph - 0.01 in Snow Light Snow
6:51 AM 27.0 °F 21.6 °F 24.1 °F 89% 29.99 in 2.5 mi West 4.6 mph - 0.01 in Snow Light Snow
7:31 AM 26.6 °F 17.5 °F 24.8 °F 93% 29.96 in 1.0 mi WNW 9.2 mph - 0.00 in Snow Light Snow
7:43 AM 26.6 °F 16.2 °F 24.8 °F 93% 29.97 in 1.0 mi NNW 11.5 mph - 0.00 in Snow Light Snow
7:51 AM 27.0 °F 16.1 °F 24.1 °F 89% 30.04 in 1.0 mi North 12.7 mph - 0.00 in Snow Light Snow
8:26 AM 26.6 °F 16.2 °F 21.2 °F 80% 30.01 in 2.0 mi North 11.5 mph - 0.00 in Snow Light Snow
8:51 AM 26.1 °F 15.6 °F 21.9 °F 84% 30.10 in 2.0 mi North 11.5 mph - 0.00 in Snow Light Snow
9:25 AM 26.6 °F 16.2 °F 21.2 °F 80% 30.05 in 3.0 mi North 11.5 mph - 0.00 in Snow Light Snow
9:51 AM 26.6 °F 15.7 °F 21.2 °F 80% 30.07 in 6.0 mi NNW 12.7 mph - N/A Snow Light Snow
10:51 AM 27.0 °F 16.7 °F 19.0 °F 72% 30.18 in 9.0 mi North 11.5 mph - 0.00 in   Overcast
11:51 AM 27.0 °F 16.1 °F 18.0 °F 69% 30.22 in 10.0 mi NNW 12.7 mph - N/A   Overcast
12:51 PM 28.4 °F 16.6 °F 17.6 °F 64% 30.18 in 9.0 mi NNW 16.1 mph - N/A   Overcast
1:08 PM 28.4 °F 17.5 °F 17.6 °F 64% 30.18 in 9.0 mi WNW 13.8 mph - 0.00 in Snow Light Snow
1:51 PM 28.9 °F 18.2 °F 16.0 °F 58% 30.27 in 10.0 mi NW 13.8 mph - 0.00 in   Mostly Cloudy
2:51 PM 30.0 °F 17.9 °F 16.0 °F 56% 30.30 in 10.0 mi NW 18.4 mph - 0.00 in Snow Light Snow
3:51 PM 28.9 °F 16.9 °F 18.0 °F 64% 30.33 in 10.0 mi WNW 17.3 mph - 0.00 in   Overcast
4:51 PM 30.0 °F 21.1 °F 18.0 °F 61% 30.35 in 10.0 mi NW 10.4 mph - 0.00 in   Scattered Clouds
5:51 PM 28.9 °F 18.6 °F 16.0 °F 58% 30.38 in 10.0 mi WNW 12.7 mph - N/A   Mostly Cloudy
7:17 PM 28.4 °F 18.0 °F 19.4 °F 69% 30.36 in 3.0 mi West 12.7 mph - 0.00 in Snow Light Snow
7:51 PM 28.0 °F 18.6 °F 21.9 °F 78% 30.45 in 2.0 mi West 10.4 mph - 0.00 in Snow Light Snow
8:13 PM 26.6 °F 15.7 °F 21.2 °F 80% 30.39 in 4.0 mi WNW 12.7 mph - 0.00 in Snow Light Snow
8:51 PM 26.1 °F 17.6 °F 19.9 °F 78% 30.48 in 10.0 mi NW 8.1 mph - 0.01 in   Scattered Clouds
9:51 PM 24.1 °F 16.0 °F 18.0 °F 77% 30.51 in 10.0 mi West 6.9 mph - N/A   Scattered Clouds
10:51 PM 24.1 °F 19.7 °F 17.1 °F 75% 30.51 in 10.0 mi West 3.5 mph - N/A   Scattered Clouds
11:51 PM 23.0 °F - 17.1 °F 78% 30.52 in 10.0 mi Calm Calm - N/A   Clear